Location: Torch Lake Township
(45.0753°N, 85.3586°W)
Time: 04:42:35
(UTC-04:00)

Amateur Radio Satellites - All Passes

Search period start: 27 September 2016 04:12
Search period end: 28 September 2016 04:12
Location: Torch Lake Township, 45.0753°N, 85.3586°W

Satellite Date Start Highest point End Downlink Frequencies (MHz)
Time Altitude Azimuth
YUBILEINY 27 Sep 04:14:01 04:22:47 76° 95° (E) 04:31:32 435.215
MOZHAYETS 4 27 Sep 04:22:27 04:26:59 67° 74° (ENE) 04:31:34
BEESAT 27 Sep 04:25:24 04:29:06 22° 267° (W) 04:32:50 436.000
AIST 2 27 Sep 04:29:34 04:32:56 25° 114° (ESE) 04:36:19 435.215
Gurwin Techsat 1B 27 Sep 04:33:19 04:38:24 47° 291° (WNW) 04:43:28 435.225
ITAMSAT 1 27 Sep 04:34:38 04:39:46 56° 101° (E) 04:44:54 435.822/435.867
PCSat 27 Sep 04:35:17 04:38:37 17° 105° (ESE) 04:41:58 145.827
BEESAT 3 27 Sep 04:41:30 04:42:37 11° 329° (NNW) 04:43:43 437.485
ISS 27 Sep 04:52:45 04:55:20 21° 223° (SW) 04:57:53 145.825
KKS-1 27 Sep 04:55:26 04:59:54 82° 255° (WSW) 05:04:23 437.445
AO-7 27 Sep 05:03:05 05:11:05 49° 101° (E) 05:19:02 29.400- 29.500
AO-85 27 Sep 05:07:43 05:09:47 13° 30° (NNE) 05:11:46 145.980
Cosmos 2491 27 Sep 05:10:31 05:16:56 23° 282° (WNW) 05:23:20 435.465 / 435.565
AIST 1 27 Sep 05:11:34 05:13:03 12° 83° (E) 05:14:32
STARS 27 Sep 05:32:00 05:36:22 69° 258° (WSW) 05:40:46 437.465
DANDE 27 Sep 05:34:43 05:37:37 12° 49° (NE) 05:40:31 436.750
CUBESAT XI-V 27 Sep 05:39:20 05:43:56 58° 73° (ENE) 05:48:35 437.345
RS-15 27 Sep 05:45:10 05:57:38 78° 52° (NE) 06:09:51 29.354- 29.394
Cosmos 2504 27 Sep 05:46:12 05:53:36 73° 280° (W) 06:00:48 435.465 / 435.565
CUSAT 1 27 Sep 05:54:40 06:01:16 28° 62° (ENE) 06:07:09 437.405
MOZHAYETS 4 27 Sep 06:02:21 06:04:38 14° 271° (W) 06:06:55
HORYU 2 27 Sep 06:05:21 06:08:50 22° 94° (E) 06:12:18 437.375
AIST 2 27 Sep 06:07:23 06:11:14 38° 313° (NW) 06:15:09 435.215
YUBILEINY 27 Sep 06:13:27 06:20:32 26° 297° (WNW) 06:27:38 435.215
ITAMSAT 1 27 Sep 06:14:55 06:18:51 22° 299° (WNW) 06:22:48 435.822/435.867
PCSat 27 Sep 06:15:57 06:21:21 77° 303° (WNW) 06:26:49 145.827
STRAND 1 27 Sep 06:21:52 06:23:28 11° 55° (NE) 06:25:03 437.568
AIST 1 27 Sep 06:45:38 06:50:01 70° 280° (W) 06:54:24
AO-85 27 Sep 06:46:55 06:51:08 66° 52° (NE) 06:55:03 145.980
AO-7 27 Sep 06:56:06 07:03:45 43° 301° (WNW) 07:11:25 29.400- 29.500
NOAA 18 27 Sep 07:01:09 07:04:23 16° 90° (E) 07:07:36 137.9125
DANDE 27 Sep 07:14:36 07:22:36 47° 70° (ENE) 07:30:19 436.750
CUBESAT XI-V 27 Sep 07:18:41 07:21:42 17° 270° (W) 07:24:42 437.345
GOMX 1 27 Sep 07:19:03 07:22:59 30° 94° (E) 07:26:43 467.674
BRITE-PL 27 Sep 07:24:31 07:29:28 83° 101° (E) 07:34:00 437.365/2234.400
LilacSat-2 27 Sep 07:24:46 07:28:08 29° 96° (E) 07:31:31 437.200
CUSAT 1 27 Sep 07:36:13 07:44:04 70° 264° (W) 07:50:44 437.405
HORYU 2 27 Sep 07:41:22 07:45:31 39° 291° (WNW) 07:49:39 437.375
Cosmos 2504 27 Sep 07:44:50 07:48:23 14° 303° (WNW) 07:51:55 435.465 / 435.565
DOVE 4 27 Sep 07:45:19 07:48:42 23° 93° (E) 07:52:01 437.250
NOAA 15 27 Sep 07:53:14 07:58:33 68° 103° (ESE) 08:03:48 137.62
STRAND 1 27 Sep 07:56:40 08:01:44 74° 73° (ENE) 08:06:52 437.568
RS-15 27 Sep 07:58:35 08:09:04 35° 256° (WSW) 08:19:23 29.354- 29.394
PCSat 27 Sep 08:02:04 08:05:41 18° 324° (NW) 08:09:18 145.827
Cubesat XI-IV 27 Sep 08:06:04 08:11:26 72° 103° (ESE) 08:16:47 437.490
CUTE-I 27 Sep 08:06:31 08:11:53 74° 103° (ESE) 08:17:15 437.470
AO-85 27 Sep 08:29:06 08:30:54 13° 252° (WSW) 08:32:40 145.980
O/OREOS (USA 219) 27 Sep 08:33:31 08:38:02 70° 111° (ESE) 08:42:38 437.305
GONETS M04 27 Sep 08:38:07 08:45:16 29° 81° (E) 08:52:26
NOAA 18 27 Sep 08:40:09 08:45:38 76° 287° (WNW) 08:51:06 137.9125
AO-7 27 Sep 08:51:43 08:54:22 12° 324° (NW) 08:57:02 29.400- 29.500
HO-68 27 Sep 08:54:48 09:01:12 34° 96° (E) 09:07:34 435.675
GOMX 1 27 Sep 08:57:14 09:01:01 27° 294° (WNW) 09:04:38 467.674
DANDE 27 Sep 08:57:33 09:05:24 46° 270° (W) 09:12:54 436.750
LilacSat-2 27 Sep 08:59:17 09:02:19 23° 293° (WNW) 09:05:21 437.200
Cosmos 2499 27 Sep 09:00:53 09:06:44 28° 84° (E) 09:12:33 435.465 / 435.565
CINEMA 3 27 Sep 09:03:06 09:07:03 41° 98° (E) 09:11:03 145.822/145.860
PRISM 27 Sep 09:04:13 09:08:00 34° 69° (ENE) 09:11:48 437.425
BRITE-PL 27 Sep 09:04:48 09:07:09 13° 303° (WNW) 09:09:25 437.365/2234.400
COMPASS 1 27 Sep 09:11:10 09:14:09 18° 92° (E) 09:17:06 437.405
CUSAT 1 27 Sep 09:20:51 09:24:26 14° 286° (WNW) 09:27:50 437.405
DOVE 4 27 Sep 09:22:43 09:26:30 32° 291° (WNW) 09:30:11 437.250
ZACube-1 27 Sep 09:33:26 09:34:20 11° 88° (E) 09:35:15 437.345
NOAA 15 27 Sep 09:34:08 09:37:48 19° 301° (WNW) 09:41:26 137.62
CUTE 1.7 + AOD 2 27 Sep 09:34:11 09:38:30 67° 102° (ESE) 09:42:45 437.475
CANX-2 27 Sep 09:35:15 09:39:35 79° 103° (ESE) 09:43:54 2200.000
SEEDS 27 Sep 09:37:15 09:41:26 50° 99° (E) 09:45:34 437.485
BEESAT 3 27 Sep 09:38:24 09:41:29 21° 41° (NE) 09:44:35 437.485
STRAND 1 27 Sep 09:38:39 09:41:28 15° 271° (W) 09:44:18 437.568
Cubesat XI-IV 27 Sep 09:47:22 09:50:56 18° 301° (WNW) 09:54:30 437.490
CUTE-I 27 Sep 09:47:50 09:51:21 18° 301° (WNW) 09:54:52 437.470
ANTELSAT 27 Sep 09:52:16 09:54:51 16° 62° (ENE) 09:57:27 437.575/2403.000
AAUSAT CUBESAT 2 27 Sep 10:02:15 10:06:22 51° 99° (E) 10:10:27 437.432
TIGRISAT 27 Sep 10:12:06 10:15:28 23° 66° (ENE) 10:18:51 435.000
O/OREOS (USA 219) 27 Sep 10:15:00 10:17:59 17° 311° (NW) 10:20:57 437.305
CUBEBUG 2 27 Sep 10:15:55 10:20:10 70° 101° (ESE) 10:24:32 437.445
NOAA 18 27 Sep 10:22:59 10:25:24 13° 306° (NW) 10:27:49 137.9125
FUNcube-1 27 Sep 10:25:25 10:29:23 35° 97° (E) 10:33:26 145.935
BEESAT 2 27 Sep 10:31:58 10:35:38 32° 46° (NE) 10:39:16 435.950
GONETS M04 27 Sep 10:32:33 10:41:21 68° 282° (WNW) 10:50:13
UWE-3 27 Sep 10:35:40 10:39:58 77° 101° (ESE) 10:44:23 435.000/436.395/437.385
PRISM 27 Sep 10:40:04 10:43:22 22° 266° (W) 10:46:41 437.425
CINEMA 3 27 Sep 10:40:59 10:43:58 19° 295° (WNW) 10:46:58 145.822/145.860
HO-68 27 Sep 10:42:16 10:49:09 52° 295° (WNW) 10:56:00 435.675
COMPASS 1 27 Sep 10:45:53 10:49:54 42° 289° (WNW) 10:53:52 437.405
UNISAT 6 27 Sep 10:51:27 10:55:40 63° 74° (ENE) 10:59:54 437.425
Cosmos 2499 27 Sep 10:52:28 10:59:26 54° 284° (WNW) 11:06:20 435.465 / 435.565
POPSAT HIP 1 27 Sep 10:55:52 10:56:34 10° 59° (ENE) 10:57:16 437.405
Oscar 11 27 Sep 11:06:22 11:10:45 83° 284° (WNW) 11:15:06 145.826/435.025
ZACube-1 27 Sep 11:06:49 11:11:08 79° 284° (WNW) 11:15:32 437.345
NANOSAT C BR1 27 Sep 11:10:58 11:13:15 14° 62° (ENE) 11:15:32 145.865
CUTE 1.7 + AOD 2 27 Sep 11:11:35 11:13:48 14° 299° (WNW) 11:16:00 437.475
CANX-2 27 Sep 11:13:09 11:14:49 12° 300° (WNW) 11:16:29 2200.000
SEEDS 27 Sep 11:13:56 11:16:45 17° 297° (WNW) 11:19:33 437.485
BEESAT 3 27 Sep 11:15:32 11:19:25 50° 240° (WSW) 11:23:15 437.485
ANTELSAT 27 Sep 11:26:59 11:31:10 55° 260° (W) 11:35:21 437.575/2403.000
DELFI C3 27 Sep 11:28:47 11:32:49 73° 102° (ESE) 11:36:49 145.870
QB50P2 27 Sep 11:32:16 11:35:46 26° 67° (ENE) 11:39:16 145.880/145.840
HUMSAT D 27 Sep 11:33:49 11:37:51 41° 98° (E) 11:41:54 437.325/437.525
POLYITAN 1 27 Sep 11:34:30 11:37:59 26° 67° (ENE) 11:41:29 437.675
AAUSAT CUBESAT 2 27 Sep 11:38:46 11:41:27 17° 297° (WNW) 11:44:08 437.432
TIGRISAT 27 Sep 11:48:06 11:52:00 34° 263° (W) 11:55:55 435.000
CUBEBUG 2 27 Sep 11:54:18 11:56:17 13° 299° (WNW) 11:58:18 437.445
JAS-2 27 Sep 11:56:07 12:02:16 43° 64° (ENE) 12:09:08 435.910
FUNcube-1 27 Sep 12:02:01 12:05:29 24° 293° (WNW) 12:08:59 145.935
ESTCUBE 1 27 Sep 12:03:41 12:06:17 15° 90° (E) 12:08:53 437.505/2401.250
BEESAT 2 27 Sep 12:09:54 12:13:22 28° 244° (WSW) 12:16:49 435.950
DUCHIFAT 1 27 Sep 12:12:46 12:16:51 56° 73° (ENE) 12:20:57 145.980
CUBEBUG 1 27 Sep 12:13:10 12:14:23 11° 88° (E) 12:15:36 437.445
QB50P1 27 Sep 12:14:03 12:18:13 67° 73° (ENE) 12:22:23 145.935-145.965
UWE-3 27 Sep 12:14:07 12:15:53 12° 299° (WNW) 12:17:40 435.000/436.395/437.385
BUGSAT 1 27 Sep 12:18:39 12:22:09 28° 68° (ENE) 12:25:37 437.445
POPSAT HIP 1 27 Sep 12:27:28 12:31:41 89° 259° (W) 12:35:54 437.405
UNISAT 6 27 Sep 12:30:55 12:32:50 13° 271° (W) 12:34:44 437.425
HO-68 27 Sep 12:32:52 12:35:16 12° 316° (NW) 12:37:41 435.675
GONETS M04 27 Sep 12:35:08 12:40:09 16° 306° (NW) 12:45:12
NANOSAT C BR1 27 Sep 12:44:22 12:48:31 60° 260° (W) 12:52:40 145.865
AIST 2 27 Sep 12:48:18 12:52:09 33° 46° (NE) 12:55:58 435.215
PHONESAT 2.4 27 Sep 12:55:52 12:58:17 23° 165° (SSE) 13:00:42 2401.200-2431.200
SPROUT 27 Sep 12:56:14 12:58:28 14° 90° (E) 13:00:41 437.525
AISAT 27 Sep 12:57:42 13:01:26 27° 95° (E) 13:05:09 437.250
DELFI C3 27 Sep 13:05:43 13:07:04 11° 300° (WNW) 13:08:25 145.870
QB50P2 27 Sep 13:07:44 13:11:28 30° 264° (W) 13:15:13 145.880/145.840
UKube-1 27 Sep 13:08:42 13:11:25 16° 92° (E) 13:14:08 .
POLYITAN 1 27 Sep 13:09:59 13:13:42 30° 264° (W) 13:17:25 437.675
HUMSAT D 27 Sep 13:10:04 13:13:13 20° 295° (WNW) 13:16:22 437.325/437.525
50 SAT 27 Sep 13:10:13 13:13:32 31° 97° (E) 13:16:49 437.505
PCSat 27 Sep 13:19:00 13:23:31 26° 43° (NE) 13:28:00 145.827
Oscar 19 27 Sep 13:24:09 13:28:47 33° 66° (ENE) 13:33:24 437.125/150
DX 1 27 Sep 13:35:06 13:39:12 39° 99° (E) 13:43:15 434.975-435.025
ESTCUBE 1 27 Sep 13:39:00 13:43:30 60° 287° (WNW) 13:47:57 437.505/2401.250
VELOX 1 27 Sep 13:40:56 13:45:21 72° 103° (ESE) 13:49:44 145.980
JAS-2 27 Sep 13:41:18 13:47:20 40° 266° (W) 13:54:07 435.910
CUBEBUG 1 27 Sep 13:46:52 13:51:13 75° 284° (WNW) 13:55:31 437.445
DUCHIFAT 1 27 Sep 13:50:44 13:52:54 14° 270° (W) 13:55:04 145.980
QB50P1 27 Sep 13:52:53 13:54:27 12° 271° (W) 13:55:59 145.935-145.965
BUGSAT 1 27 Sep 13:53:59 13:57:29 27° 264° (W) 14:00:58 437.445
AUBIESAT-1 27 Sep 13:55:53 13:59:01 38° 104° (ESE) 14:02:08 437.475
AO-7 27 Sep 14:14:59 14:20:42 21° 47° (NE) 14:26:23 29.400- 29.500
Gurwin Techsat 1B 27 Sep 14:16:41 14:21:45 47° 69° (ENE) 14:26:51 435.225
ITAMSAT 1 27 Sep 14:17:54 14:20:57 16° 58° (ENE) 14:24:01 435.822/435.867
TISAT 1 27 Sep 14:18:00 14:21:11 21° 94° (E) 14:24:21 437.305
YUBILEINY 27 Sep 14:21:56 14:30:06 42° 71° (ENE) 14:38:12 435.215
Cosmos 2491 27 Sep 14:22:55 14:28:32 19° 76° (ENE) 14:34:10 435.465 / 435.565
AIST 2 27 Sep 14:26:53 14:30:34 30° 244° (WSW) 14:34:13 435.215
SPROUT 27 Sep 14:30:35 14:34:47 58° 287° (WNW) 14:38:57 437.525
PHONESAT 2.4 27 Sep 14:31:19 14:34:01 33° 182° (S) 14:36:44 2401.200-2431.200
M-CUBED/EXP-1 PRIME 27 Sep 14:32:46 14:35:58 50° 293° (WNW) 14:39:09 437.505
AISAT 27 Sep 14:34:01 14:37:55 32° 293° (WNW) 14:41:47 437.250
UKube-1 27 Sep 14:43:34 14:47:46 51° 289° (WNW) 14:51:55 .
50 SAT 27 Sep 14:44:09 14:46:51 20° 294° (WNW) 14:49:32 437.505
PCSat 27 Sep 15:01:58 15:07:21 63° 243° (WSW) 15:12:41 145.827
Oscar 19 27 Sep 15:03:20 15:08:03 35° 263° (W) 15:12:48 437.125/150
DX 1 27 Sep 15:11:47 15:15:09 22° 296° (WNW) 15:18:30 434.975-435.025
VELOX 1 27 Sep 15:19:03 15:21:15 14° 300° (WNW) 15:23:26 145.980
SO-50 27 Sep 15:23:25 15:26:20 16° 110° (ESE) 15:29:14 436.795
AUBIESAT-1 27 Sep 15:31:26 15:33:13 14° 302° (WNW) 15:35:00 437.475
Cosmos 2504 27 Sep 15:35:14 15:42:15 44° 74° (ENE) 15:49:39 435.465 / 435.565
TISAT 1 27 Sep 15:53:06 15:56:57 36° 291° (WNW) 16:00:46 437.305
ITAMSAT 1 27 Sep 15:54:36 15:59:46 80° 256° (WSW) 16:05:00 435.822/435.867
ITUPSAT 1 27 Sep 15:55:38 16:00:15 43° 99° (E) 16:04:49 437.325
Gurwin Techsat 1B 27 Sep 15:57:38 16:01:56 25° 267° (W) 16:06:15 435.225
AO-7 27 Sep 16:03:55 16:12:13 77° 68° (ENE) 16:20:32 29.400- 29.500
PHONESAT 2.4 27 Sep 16:07:30 16:09:44 19° 198° (SSW) 16:11:57 2401.200-2431.200
SWISSCUBE 27 Sep 16:08:55 16:13:43 66° 103° (ESE) 16:18:29 437.505
Cosmos 2491 27 Sep 16:15:14 16:24:02 87° 96° (E) 16:32:56 435.465 / 435.565
MOZHAYETS 4 27 Sep 16:16:55 16:19:21 14° 89° (E) 16:21:46
YUBILEINY 27 Sep 16:18:49 16:26:59 47° 272° (W) 16:35:09 435.215
BEESAT 27 Sep 16:21:57 16:26:46 80° 103° (ESE) 16:31:34 436.000
KKS-1 27 Sep 16:45:30 16:48:16 16° 91° (E) 16:51:02 437.445
AIST 1 27 Sep 16:50:47 16:54:43 34° 74° (ENE) 16:58:36
BRITE-PL 27 Sep 16:59:42 17:03:34 19° 61° (ENE) 17:07:22 437.365/2234.400
SO-50 27 Sep 17:01:26 17:06:16 74° 307° (NW) 17:11:03 436.795
O/OREOS (USA 219) 27 Sep 17:02:48 17:06:33 24° 53° (NE) 17:10:17 437.305
HORYU 2 27 Sep 17:05:13 17:08:54 27° 66° (ENE) 17:12:36 437.375
STARS 27 Sep 17:20:13 17:23:14 18° 92° (E) 17:26:13 437.465
Cosmos 2504 27 Sep 17:28:49 17:35:31 38° 272° (W) 17:42:35 435.465 / 435.565
ITUPSAT 1 27 Sep 17:33:59 17:37:50 24° 296° (WNW) 17:41:40 437.325
CUBESAT XI-V 27 Sep 17:35:46 17:37:47 13° 88° (E) 17:39:47 437.345
NOAA 15 27 Sep 17:37:32 17:41:20 20° 60° (ENE) 17:45:08 137.62
ITAMSAT 1 27 Sep 17:39:36 17:40:04 10° 274° (W) 17:40:31 435.822/435.867
SWISSCUBE 27 Sep 17:47:57 17:50:59 17° 300° (WNW) 17:54:01 437.505
Cubesat XI-IV 27 Sep 17:51:58 17:55:55 22° 61° (ENE) 17:59:52 437.490
CUTE-I 27 Sep 17:52:13 17:56:12 22° 61° (ENE) 18:00:11 437.470
MOZHAYETS 4 27 Sep 17:52:21 17:56:59 67° 286° (WNW) 18:01:35
AO-7 27 Sep 17:59:13 18:05:46 25° 268° (W) 18:12:21 29.400- 29.500
BEESAT 27 Sep 18:01:23 18:03:55 14° 302° (WNW) 18:06:28 436.000
LilacSat-2 27 Sep 18:09:09 18:11:56 20° 66° (ENE) 18:14:43 437.200
Cosmos 2491 27 Sep 18:15:28 18:22:07 23° 300° (WNW) 18:28:49 435.465 / 435.565
KKS-1 27 Sep 18:20:50 18:25:10 53° 288° (WNW) 18:29:28 437.445
GOMX 1 27 Sep 18:27:48 18:32:55 46° 71° (ENE) 18:37:48 467.674
NOAA 18 27 Sep 18:28:42 18:33:41 37° 66° (ENE) 18:38:40 137.9125
AIST 1 27 Sep 18:28:48 18:32:06 22° 272° (W) 18:35:22
BRITE-PL 27 Sep 18:35:44 18:41:26 76° 258° (WSW) 18:47:02 437.365/2234.400
HORYU 2 27 Sep 18:41:23 18:45:20 32° 263° (W) 18:49:20 437.375
O/OREOS (USA 219) 27 Sep 18:41:47 18:46:10 43° 253° (WSW) 18:50:30 437.305
SO-50 27 Sep 18:44:29 18:47:33 17° 327° (NNW) 18:50:36 436.795
GONETS M04 27 Sep 18:45:20 18:50:27 16° 54° (NE) 18:55:30
Cosmos 2499 27 Sep 18:49:28 18:51:58 12° 55° (NE) 18:54:30 435.465 / 435.565
DOVE 4 27 Sep 18:51:51 18:56:20 34° 69° (ENE) 19:00:35 437.250
STARS 27 Sep 18:55:38 18:59:50 46° 289° (WNW) 19:04:00 437.465
CUSAT 1 27 Sep 18:58:45 19:03:27 21° 79° (E) 19:08:44 437.405
CUBESAT XI-V 27 Sep 19:11:00 19:15:43 76° 286° (WNW) 19:20:22 437.345
NOAA 15 27 Sep 19:15:21 19:20:37 64° 258° (WSW) 19:25:56 137.62
HO-68 27 Sep 19:25:50 19:32:01 33° 59° (ENE) 19:38:12 435.675
Cubesat XI-IV 27 Sep 19:30:20 19:35:33 59° 259° (WSW) 19:40:50 437.490
CUTE-I 27 Sep 19:30:36 19:35:50 58° 259° (W) 19:41:06 437.470
LilacSat-2 27 Sep 19:42:39 19:46:02 32° 263° (W) 19:49:28 437.200
COMPASS 1 27 Sep 20:04:11 20:06:55 17° 63° (ENE) 20:09:39 437.405
STRAND 1 27 Sep 20:05:50 20:09:45 21° 92° (E) 20:13:39 437.568
CINEMA 3 27 Sep 20:06:24 20:10:42 48° 72° (ENE) 20:14:51 145.822/145.860
GOMX 1 27 Sep 20:06:42 20:11:07 26° 267° (W) 20:15:25 467.674
NOAA 18 27 Sep 20:09:27 20:14:21 33° 263° (W) 20:19:17 137.9125
RS-15 27 Sep 20:11:23 20:21:42 40° 107° (ESE) 20:32:28 29.354- 29.394
BRITE-PL 27 Sep 20:19:01 20:20:42 11° 275° (W) 20:22:22 437.365/2234.400
DANDE 27 Sep 20:25:14 20:29:59 35° 86° (E) 20:36:02 436.750
CUTE 1.7 + AOD 2 27 Sep 20:28:25 20:32:34 59° 74° (ENE) 20:36:48 437.475
CANX-2 27 Sep 20:29:33 20:33:45 71° 76° (ENE) 20:38:02 2200.000
DOVE 4 27 Sep 20:29:38 20:34:01 30° 265° (W) 20:38:12 437.250
Oscar 11 27 Sep 20:30:10 20:31:29 11° 59° (ENE) 20:32:49 145.826/435.025
SEEDS 27 Sep 20:30:37 20:34:37 44° 71° (ENE) 20:38:39 437.485
ZACube-1 27 Sep 20:31:43 20:32:53 11° 60° (ENE) 20:34:02 437.345
CUSAT 1 27 Sep 20:38:02 20:44:22 79° 282° (WNW) 20:52:08 437.405
Cosmos 2499 27 Sep 20:39:23 20:46:48 59° 77° (ENE) 20:54:44 435.465 / 435.565
GONETS M04 27 Sep 20:40:22 20:49:12 69° 78° (ENE) 20:57:55
CUBESAT XI-V 27 Sep 20:51:37 20:52:15 10° 304° (WNW) 20:52:52 437.345
AAUSAT CUBESAT 2 27 Sep 20:54:06 20:58:02 42° 71° (ENE) 21:02:01 437.432
AO-85 27 Sep 21:04:02 21:07:09 16° 110° (ESE) 21:10:10 145.980
HO-68 27 Sep 21:12:22 21:19:23 57° 258° (WSW) 21:26:27 435.675
CUBEBUG 2 27 Sep 21:15:51 21:20:03 73° 74° (ENE) 21:24:12 437.445
FUNcube-1 27 Sep 21:22:59 21:26:41 33° 70° (ENE) 21:30:26 145.935
ISS 27 Sep 21:33:17 21:36:21 38° 142° (SE) 21:39:25 145.825
UWE-3 27 Sep 21:34:31 21:38:40 77° 74° (ENE) 21:42:49 435.000/436.395/437.385
COMPASS 1 27 Sep 21:38:03 21:42:05 49° 261° (W) 21:46:12 437.405
STRAND 1 27 Sep 21:44:13 21:49:14 52° 289° (WNW) 21:54:12 437.568
CINEMA 3 27 Sep 21:45:09 21:48:05 17° 268° (W) 21:50:58 145.822/145.860
Oscar 11 27 Sep 22:02:38 22:06:57 86° 257° (WSW) 22:11:18 145.826/435.025
ZACube-1 27 Sep 22:04:25 22:08:33 80° 256° (WSW) 22:12:43 437.345
CUTE 1.7 + AOD 2 27 Sep 22:06:41 22:08:49 14° 271° (W) 22:10:58 437.475
DANDE 27 Sep 22:07:36 22:12:39 39° 293° (WNW) 22:19:08 436.750
SEEDS 27 Sep 22:07:38 22:10:32 18° 268° (W) 22:13:27 437.485
CANX-2 27 Sep 22:08:44 22:10:07 11° 272° (W) 22:11:31 2200.000
DELFI C3 27 Sep 22:16:05 22:19:59 53° 73° (ENE) 22:23:56 145.870
PRISM 27 Sep 22:18:34 22:22:30 41° 99° (E) 22:26:23 437.425
RS-15 27 Sep 22:21:43 22:33:25 70° 311° (NW) 22:45:45 29.354- 29.394
CUSAT 1 27 Sep 22:23:22 22:27:54 18° 306° (NW) 22:32:55 437.405
HUMSAT D 27 Sep 22:26:58 22:30:41 35° 70° (ENE) 22:34:27 437.325/437.525
AAUSAT CUBESAT 2 27 Sep 22:30:51 22:33:43 18° 268° (W) 22:36:37 437.432
Cosmos 2499 27 Sep 22:33:13 22:39:29 29° 275° (W) 22:46:06 435.465 / 435.565
GONETS M04 27 Sep 22:38:12 22:45:15 28° 279° (W) 22:52:15
AO-85 27 Sep 22:41:57 22:47:07 79° 305° (NW) 22:51:59 145.980
UNISAT 6 27 Sep 22:43:01 22:44:27 11° 89° (E) 22:45:52 437.425
CUBEBUG 2 27 Sep 22:56:26 22:57:10 10° 272° (W) 22:57:54 437.445
FUNcube-1 27 Sep 22:59:48 23:03:02 22° 267° (W) 23:06:17 145.935
ESTCUBE 1 27 Sep 23:05:02 23:08:11 19° 62° (ENE) 23:11:20 437.505/2401.250
VELOX 1 27 Sep 23:07:55 23:08:29 10° 57° (ENE) 23:09:04 145.980
ISS 27 Sep 23:09:43 23:12:50 41° 340° (NNW) 23:15:58 145.825
CUBEBUG 1 27 Sep 23:10:43 23:12:57 14° 60° (ENE) 23:15:10 437.445
ANTELSAT 27 Sep 23:16:33 23:20:14 25° 95° (E) 23:23:58 437.575/2403.000
TIGRISAT 27 Sep 23:36:50 23:40:57 38° 98° (E) 23:45:07 435.000
M-CUBED/EXP-1 PRIME 27 Sep 23:46:47 23:50:04 24° 63° (ENE) 23:53:12 437.505
50 SAT 27 Sep 23:49:14 23:51:54 20° 66° (ENE) 23:54:36 437.505
SO-50 27 Sep 23:51:09 23:55:09 28° 41° (NE) 23:59:02 436.795
SPROUT 27 Sep 23:51:56 23:54:21 15° 62° (ENE) 23:56:48 437.525
DELFI C3 27 Sep 23:53:09 23:55:10 13° 270° (W) 23:57:11 145.870
PRISM 27 Sep 23:54:32 23:57:31 20° 296° (WNW) 00:00:30 437.425
AISAT 27 Sep 23:56:45 00:00:41 31° 67° (ENE) 00:04:36 437.250
HUMSAT D 28 Sep 00:03:21 00:06:25 20° 267° (W) 00:09:32 437.325/437.525
UKube-1 28 Sep 00:05:06 00:08:10 19° 63° (ENE) 00:11:14 .
POPSAT HIP 1 28 Sep 00:11:55 00:13:49 13° 90° (E) 00:15:43 437.405
UNISAT 6 28 Sep 00:17:15 00:21:39 76° 286° (WNW) 00:26:08 437.425
AO-85 28 Sep 00:24:58 00:28:16 17° 325° (NW) 00:31:27 145.980
NANOSAT C BR1 28 Sep 00:27:29 00:30:24 18° 92° (E) 00:33:19 145.865
Cosmos 2491 28 Sep 00:30:25 00:32:16 11° 47° (NE) 00:34:07 435.465 / 435.565
DX 1 28 Sep 00:32:13 00:36:23 44° 70° (ENE) 00:40:33 434.975-435.025
RS-15 28 Sep 00:38:03 00:48:38 34° 342° (NNW) 00:59:32 29.354- 29.394
VELOX 1 28 Sep 00:39:44 00:44:12 81° 73° (ENE) 00:48:39 145.980
ESTCUBE 1 28 Sep 00:40:11 00:44:36 52° 260° (W) 00:49:04 437.505/2401.250
AUBIESAT-1 28 Sep 00:43:01 00:47:04 81° 70° (ENE) 00:50:49 437.475
CUBEBUG 1 28 Sep 00:44:16 00:48:41 72° 258° (WSW) 00:53:06 437.445
ISS 28 Sep 00:47:06 00:49:53 25° 0° (N) 00:52:40 145.825
JAS-2 28 Sep 00:47:51 00:54:59 36° 93° (E) 01:01:49 435.910
QB50P2 28 Sep 00:50:06 00:53:59 35° 97° (E) 00:57:53 145.880/145.840
POLYITAN 1 28 Sep 00:52:19 00:56:12 35° 97° (E) 01:00:05 437.675
ANTELSAT 28 Sep 00:53:02 00:56:59 34° 291° (WNW) 01:01:01 437.575/2403.000
BEESAT 3 28 Sep 01:09:02 01:11:19 15° 111° (ESE) 01:13:37 437.485
TISAT 1 28 Sep 01:11:39 01:14:49 21° 65° (ENE) 01:18:00 437.305
TIGRISAT 28 Sep 01:14:00 01:17:26 23° 295° (WNW) 01:20:56 435.000
M-CUBED/EXP-1 PRIME 28 Sep 01:20:49 01:24:30 31° 257° (WSW) 01:27:58 437.505
50 SAT 28 Sep 01:21:59 01:25:13 30° 263° (W) 01:28:30 437.505
SPROUT 28 Sep 01:25:37 01:29:50 60° 259° (W) 01:34:04 437.525
DUCHIFAT 1 28 Sep 01:30:12 01:34:25 80° 104° (ESE) 01:38:36 145.980
SO-50 28 Sep 01:31:26 01:35:48 45° 241° (WSW) 01:40:04 436.795
QB50P1 28 Sep 01:32:16 01:36:30 85° 285° (WNW) 01:40:42 145.935-145.965
BUGSAT 1 28 Sep 01:33:06 01:36:47 34° 97° (E) 01:40:27 437.445
AISAT 28 Sep 01:33:18 01:37:08 28° 265° (W) 01:40:58 437.250
UKube-1 28 Sep 01:39:42 01:43:52 46° 260° (W) 01:48:05 .
SWISSCUBE 28 Sep 01:42:37 01:44:48 13° 57° (ENE) 01:46:58 437.505
POPSAT HIP 1 28 Sep 01:45:51 01:50:00 62° 287° (WNW) 01:54:10 437.405
BEESAT 28 Sep 01:54:56 01:57:41 15° 59° (ENE) 02:00:26 436.000
NANOSAT C BR1 28 Sep 02:02:21 02:06:20 43° 289° (WNW) 02:10:18 145.865
BEESAT 2 28 Sep 02:03:11 02:06:35 28° 115° (ESE) 02:10:00 435.950
DX 1 28 Sep 02:09:38 02:12:47 19° 267° (W) 02:15:56 434.975-435.025
VELOX 1 28 Sep 02:20:11 02:21:13 11° 272° (W) 02:22:16 145.980
Cosmos 2491 28 Sep 02:23:18 02:31:51 49° 73° (ENE) 02:40:18 435.465 / 435.565
ISS 28 Sep 02:23:45 02:26:55 42° 20° (NNE) 02:30:04 145.825
QB50P2 28 Sep 02:26:17 02:29:37 23° 294° (WNW) 02:32:56 145.880/145.840
POLYITAN 1 28 Sep 02:28:30 02:31:50 23° 294° (WNW) 02:35:09 437.675
Gurwin Techsat 1B 28 Sep 02:32:01 02:35:11 16° 89° (E) 02:38:20 435.225
JAS-2 28 Sep 02:32:34 02:40:13 56° 292° (WNW) 02:47:35 435.910
BEESAT 3 28 Sep 02:44:42 02:48:33 55° 309° (NW) 02:52:26 437.485
TISAT 1 28 Sep 02:46:20 02:50:15 38° 262° (W) 02:54:10 437.305
RS-15 28 Sep 02:55:10 03:05:54 33° 16° (NNE) 03:16:40 29.354- 29.394
ITUPSAT 1 28 Sep 03:04:07 03:08:48 63° 72° (ENE) 03:13:33 437.325
DUCHIFAT 1 28 Sep 03:08:07 03:09:29 11° 300° (WNW) 03:10:50 145.980
BUGSAT 1 28 Sep 03:08:54 03:11:59 21° 294° (WNW) 03:15:03 437.445
Oscar 19 28 Sep 03:12:09 03:17:20 72° 103° (ESE) 03:22:27 437.125/150
SWISSCUBE 28 Sep 03:17:07 03:21:53 87° 250° (WSW) 03:26:42 437.505
MOZHAYETS 4 28 Sep 03:20:40 03:23:43 18° 62° (ENE) 03:26:46
YUBILEINY 28 Sep 03:25:23 03:33:32 45° 87° (E) 03:41:38 435.215
BEESAT 28 Sep 03:30:08 03:34:53 73° 257° (WSW) 03:39:40 436.000
BEESAT 2 28 Sep 03:40:43 03:44:18 32° 314° (NW) 03:47:56 435.950
KKS-1 28 Sep 03:45:22 03:48:38 20° 63° (ENE) 03:51:54 437.445
ISS 28 Sep 04:00:19 04:03:24 36° 218° (SW) 04:06:27 145.825
PCSat 28 Sep 04:06:08 04:08:01 12° 102° (ESE) 04:09:54 145.827
